period_start,C,m1,H,J0,J1,J2,J3,J4,J5,JA,JB,JC,JD,JJ,JK,JN,#
2016-12-02 00:02:56,0.29,3.76,0.00,17.17,21.81,25.61,14.93,50.17,1018.14,2046.01,2285.29,2263.13,2571.14,600.36,609.28,19.20,0000 0000 0000 0000 000000
2016-12-02 00:07:58,0.30,3.77,0.00,17.19,21.79,25.61,14.93,50.20,1018.13,2046.03,2281.73,2260.34,2568.05,600.00,608.86,19.25,0000 0000 0000 0000 000000
2016-12-02 00:12:59,0.30,3.79,0.00,17.20,21.79,25.58,14.95,50.08,1018.10,2046.07,2278.12,2257.55,2564.97,600.18,608.93,19.30,0000 0000 0000 0000 000000
2016-12-02 00:18:00,0.30,3.80,0.00,17.19,21.78,25.59,14.92,50.17,1018.10,2046.07,2274.66,2254.80,2561.71,599.86,608.66,19.35,0000 0000 0000 0000 000000
2016-12-02 00:23:02,0.29,3.82,0.00,17.17,21.77,25.59,14.88,50.25,1018.09,2046.06,2271.14,2251.97,2558.54,599.80,608.67,19.40,0000 0000 0000 0000 000000
2016-12-02 00:28:03,0.31,3.83,0.00,17.18,21.77,25.56,14.91,50.09,1018.11,2046.07,2267.35,2249.08,2555.33,600.12,609.01,19.45,0000 0000 0000 0000 000000
2016-12-02 00:33:04,0.31,3.85,0.00,17.19,21.77,25.59,14.95,50.08,1018.10,2046.06,2263.62,2246.17,2552.05,600.12,608.95,19.50,0000 0000 0000 0000 000000
2016-12-02 00:38:05,0.31,3.86,0.00,17.17,21.76,25.60,14.99,50.11,1018.08,2046.10,2259.96,2243.34,2548.82,600.12,608.98,19.55,0000 0000 0000 0000 000000
2016-12-02 00:43:07,0.31,3.88,0.00,17.17,21.74,25.58,14.95,50.09,1018.08,2046.09,2256.29,2240.47,2545.53,600.27,609.15,19.60,0000 0000 0000 0000 000000
2016-12-02 00:48:08,0.32,3.90,0.00,17.17,21.74,25.57,14.98,50.12,1018.08,2046.30,2252.57,2237.78,2542.32,600.13,609.01,19.65,0000 0000 0000 0000 000000
2016-12-02 00:53:09,0.32,3.91,0.00,17.19,21.74,25.60,14.98,50.06,1018.09,2046.36,2248.88,2234.88,2538.97,600.11,608.86,19.70,0000 0000 0000 0000 000000
2016-12-02 00:58:11,0.34,3.93,0.00,17.19,21.73,25.56,14.94,50.20,1018.08,2046.47,2245.25,2232.04,2535.71,599.90,608.84,19.75,0000 0000 0000 0000 000000
2016-12-02 01:03:12,0.30,3.94,0.00,17.17,21.72,25.54,14.95,50.24,1018.08,2046.67,2241.95,2229.28,2532.44,599.95,608.85,19.80,0000 0000 0000 0000 000000
2016-12-02 01:08:14,0.28,3.96,0.00,17.18,21.72,25.55,14.97,50.21,1018.08,2046.57,2238.60,2226.53,2529.28,600.01,608.74,19.85,0000 0000 0000 0000 000000
2016-12-02 01:13:15,0.29,3.97,0.00,17.18,21.72,25.55,14.97,50.24,1018.08,2046.39,2234.98,2223.71,2526.13,599.93,608.74,19.90,0000 0000 0000 0000 000000
2016-12-02 01:18:16,0.33,3.99,0.00,17.17,21.71,25.57,14.98,50.19,1018.08,2046.59,2231.55,2221.03,2522.98,600.19,609.11,19.95,0000 0000 0000 0000 000000
2016-12-02 01:23:18,0.31,4.00,0.00,17.13,21.70,25.58,14.92,50.26,1018.08,2046.51,2227.94,2218.21,2519.86,599.80,608.67,20.00,0000 0000 0000 0000 000000
2016-12-02 01:28:19,0.35,4.02,0.00,17.15,21.69,25.54,14.94,50.17,1018.08,2046.83,2224.29,2215.45,2516.80,600.09,609.07,20.05,0000 0000 0000 0000 000000
2016-12-02 01:33:20,0.30,4.04,0.00,17.14,21.69,25.54,15.00,50.37,1018.08,2046.93,2220.81,2212.70,2513.66,600.01,608.91,20.10,0000 0000 0000 0000 000000
2016-12-02 01:38:21,0.30,4.05,0.00,17.13,21.69,25.54,14.96,50.27,1018.08,2046.95,2217.67,2210.01,2510.38,600.20,609.16,20.15,0000 0000 0000 0000 000000
2016-12-02 01:43:22,0.31,4.07,0.00,17.15,21.69,25.56,14.95,50.29,1018.08,2046.94,2214.14,2207.25,2507.21,600.02,608.94,20.20,0000 0000 0000 0000 000000
2016-12-02 01:48:24,0.30,4.08,0.00,17.15,21.69,25.54,15.01,50.36,1018.08,2046.94,2210.55,2204.46,2504.15,600.13,609.14,20.25,0000 0000 0000 0000 000000
2016-12-02 01:53:25,0.30,4.10,0.00,17.15,21.69,25.55,14.86,50.32,1018.03,2046.98,2207.22,2201.81,2501.03,599.94,608.89,20.30,0000 0000 0000 0000 000000
2016-12-02 01:58:26,0.31,4.11,0.00,17.17,21.69,25.56,14.91,50.33,1018.04,2046.97,2203.70,2199.02,2497.91,599.73,608.56,20.35,0000 0000 0000 0000 000000
2016-12-02 02:03:27,0.31,4.13,0.00,17.16,21.69,25.54,14.94,50.30,1018.04,2046.96,2200.10,2196.22,2494.85,599.93,608.81,20.40,0000 0000 0000 0000 000000
2016-12-02 02:08:28,0.30,4.15,0.00,17.16,21.69,25.52,14.92,50.28,1017.99,2046.93,2196.58,2193.46,2491.81,599.89,608.74,20.45,0000 0000 0000 0000 000000
2016-12-02 02:13:30,0.30,4.16,0.00,17.14,21.69,25.55,14.98,50.23,1017.91,2046.96,2193.25,2190.78,2488.73,600.05,608.88,20.50,0000 0000 0000 0000 000000
2016-12-02 02:18:31,0.31,4.18,0.00,17.13,21.69,25.56,14.92,50.41,1017.79,2046.92,2189.93,2188.04,2485.53,599.86,608.63,20.55,0000 0000 0000 0000 000000
2016-12-02 02:23:32,0.31,4.19,0.00,17.15,21.69,25.52,14.91,50.39,1017.74,2046.90,2186.55,2185.30,2482.33,599.82,608.55,20.60,0000 0000 0000 0000 000000
2016-12-02 02:28:33,0.30,4.21,0.00,17.16,21.69,25.55,14.90,50.42,1017.87,2046.87,2183.09,2182.57,2479.22,600.00,608.79,20.65,0000 0000 0000 0000 000000
2016-12-02 02:33:35,0.31,4.22,0.00,17.18,21.69,25.55,15.00,50.43,1017.90,2046.88,2179.68,2179.90,2476.12,600.07,608.79,20.70,0000 0000 0000 0000 000000
2016-12-02 02:38:35,0.31,4.24,0.00,17.15,21.69,25.57,14.98,50.48,1018.03,2046.83,2176.18,2177.16,2472.99,600.21,609.21,20.75,0000 0000 0000 0000 000000
2016-12-02 02:43:37,0.29,4.25,0.00,17.15,21.69,25.56,14.96,50.44,1017.98,2046.81,2172.99,2174.49,2469.84,599.99,608.87,20.80,0000 0000 0000 0000 000000
2016-12-02 02:48:38,0.30,4.27,0.00,17.15,21.69,25.54,14.95,50.35,1017.82,2046.86,2169.85,2171.91,2466.69,600.40,609.16,20.85,0000 0000 0000 0000 000000
2016-12-02 02:53:39,0.27,4.28,0.00,17.15,21.69,25.55,14.95,50.38,1017.77,2046.58,2166.26,2169.22,2463.65,600.24,608.92,20.90,0000 0000 0000 0000 000000
2016-12-02 02:58:40,0.32,4.30,0.00,17.14,21.68,25.52,14.99,50.35,1017.63,2046.54,2162.74,2166.47,2460.58,600.18,608.75,20.95,0000 0000 0000 0000 000000
2016-12-02 03:03:42,0.32,4.31,0.00,17.15,21.67,25.55,14.98,50.44,1017.67,2046.71,2159.41,2163.78,2457.48,600.40,609.07,21.00,0000 0000 0000 0000 000000
2016-12-02 03:08:43,0.31,4.33,0.00,17.15,21.67,25.52,14.92,50.42,1017.63,2046.79,2156.03,2161.13,2454.37,600.36,609.00,21.05,0000 0000 0000 0000 000000
2016-12-02 03:13:44,0.32,4.35,0.00,17.15,21.67,25.51,14.99,50.41,1017.64,2046.84,2152.64,2158.43,2451.31,600.27,608.93,21.10,0000 0000 0000 0000 000000
2016-12-02 03:18:46,0.31,4.36,0.00,17.14,21.67,25.51,14.91,50.34,1017.70,2046.79,2149.20,2155.73,2448.32,600.05,608.79,21.15,0000 0000 0000 0000 000000
2016-12-02 03:23:47,0.31,4.38,0.00,17.13,21.65,25.52,14.90,50.35,1017.67,2046.87,2145.95,2153.11,2445.24,599.66,608.47,21.20,0000 0000 0000 0000 000000
2016-12-02 03:28:48,0.30,4.40,0.00,17.11,21.64,25.50,14.95,50.36,1017.61,2046.84,2142.63,2150.47,2442.16,600.18,608.90,21.25,0000 0000 0000 0000 000000
2016-12-02 03:33:49,0.33,4.41,0.00,17.12,21.64,25.50,14.90,50.40,1017.60,2046.93,2139.14,2147.81,2439.14,599.79,608.54,21.30,0000 0000 0000 0000 000000
2016-12-02 03:38:51,0.30,4.43,0.00,17.12,21.64,25.47,14.98,50.51,1017.60,2046.85,2135.68,2145.12,2436.12,599.83,608.47,21.35,0000 0000 0000 0000 000000
2016-12-02 03:43:52,0.31,4.44,0.00,17.14,21.63,25.48,15.00,50.40,1017.60,2046.91,2132.37,2142.45,2433.12,600.04,608.71,21.40,0000 0000 0000 0000 000000
2016-12-02 03:48:54,0.31,4.46,0.00,17.11,21.62,25.46,14.93,50.41,1017.60,2046.92,2129.01,2139.78,2430.18,600.01,608.75,21.45,0000 0000 0000 0000 000000
2016-12-02 03:53:56,0.30,4.48,0.00,17.09,21.62,25.49,14.89,50.33,1017.60,2046.95,2125.87,2137.20,2427.13,600.02,608.84,21.50,0000 0000 0000 0000 000000
2016-12-02 03:58:57,0.30,4.49,0.00,17.09,21.62,25.48,14.81,50.36,1017.59,2046.94,2122.57,2134.59,2424.10,599.68,608.52,21.55,0000 0000 0000 0000 000000
2016-12-02 04:03:58,0.31,4.51,0.00,17.10,21.62,25.48,14.92,50.42,1017.59,2046.96,2119.28,2132.01,2421.09,599.61,608.35,21.60,0000 0000 0000 0000 000000
2016-12-02 04:09:00,0.30,4.52,0.00,17.10,21.60,25.48,14.90,50.48,1017.59,2046.90,2115.86,2129.36,2418.16,599.95,608.71,21.65,0000 0000 0000 0000 000000
2016-12-02 04:14:01,0.31,4.54,0.00,17.08,21.59,25.46,15.02,50.56,1017.59,2046.87,2112.55,2126.69,2415.15,600.04,608.75,21.70,0000 0000 0000 0000 000000
2016-12-02 04:19:02,0.31,4.55,0.00,17.07,21.59,25.46,14.98,50.57,1017.60,2046.85,2109.40,2124.03,2412.08,600.16,609.05,21.75,0000 0000 0000 0000 000000
2016-12-02 04:24:03,0.30,4.57,0.00,17.08,21.59,25.44,14.99,50.48,1017.59,2046.91,2106.36,2121.50,2409.12,600.02,608.77,21.80,0000 0000 0000 0000 000000
2016-12-02 04:29:05,0.30,4.58,0.00,17.08,21.59,25.45,14.84,50.48,1017.60,2046.95,2103.21,2119.02,2406.24,599.85,608.64,21.86,0000 0000 0000 0000 000000
2016-12-02 04:34:06,0.30,4.60,0.00,17.08,21.59,25.43,14.89,50.48,1017.60,2046.95,2099.95,2116.45,2403.34,599.90,608.69,21.91,0000 0000 0000 0000 000000
2016-12-02 04:39:07,0.30,4.61,0.00,17.08,21.59,25.45,14.98,50.49,1017.59,2046.96,2096.86,2114.00,2400.46,599.81,608.54,21.96,0000 0000 0000 0000 000000
2016-12-02 04:44:09,0.29,4.63,0.00,17.07,21.58,25.45,14.92,50.58,1017.60,2046.97,2093.68,2111.56,2397.62,600.10,608.91,22.01,0000 0000 0000 0000 000000
2016-12-02 04:49:10,0.32,4.64,0.00,17.07,21.57,25.46,14.96,50.65,1017.59,2046.99,2090.30,2109.12,2394.80,600.10,608.91,22.06,0000 0000 0000 0000 000000
2016-12-02 04:54:11,0.30,4.66,0.00,17.06,21.57,25.46,14.97,50.61,1017.59,2046.98,2087.04,2106.52,2391.87,600.02,608.80,22.11,0000 0000 0000 0000 000000
2016-12-02 04:59:12,0.30,4.68,0.00,17.05,21.57,25.43,14.95,50.46,1017.59,2046.98,2084.05,2104.00,2388.82,599.90,608.83,22.16,0000 0000 0000 0000 000000
2016-12-02 05:04:14,0.32,4.69,0.00,17.05,21.57,25.41,14.99,50.53,1017.59,2046.97,2080.75,2101.37,2385.81,600.19,609.04,22.21,0000 0000 0000 0000 000000
2016-12-02 05:09:15,0.32,4.71,0.00,17.07,21.57,25.45,14.99,50.56,1017.60,2046.99,2077.42,2098.84,2382.95,600.32,609.12,22.26,0000 0000 0000 0000 000000
2016-12-02 05:14:16,0.31,4.72,0.00,17.06,21.57,25.48,14.91,50.52,1017.61,2046.98,2074.09,2096.25,2380.07,600.06,608.82,22.31,0000 0000 0000 0000 000000
2016-12-02 05:19:17,0.30,4.74,0.00,17.06,21.57,25.44,14.99,50.58,1017.59,2046.98,2070.99,2093.70,2377.15,599.77,608.59,22.36,0000 0000 0000 0000 000000
2016-12-02 05:24:19,0.30,4.75,0.00,17.06,21.57,25.46,14.91,50.53,1017.59,2046.98,2068.09,2091.24,2374.14,599.98,608.73,22.41,0000 0000 0000 0000 000000
2016-12-02 05:29:20,0.29,4.77,0.00,17.06,21.58,25.44,14.95,50.59,1017.59,2046.96,2065.31,2088.85,2371.14,599.88,608.74,22.46,0000 0000 0000 0000 000000
2016-12-02 05:34:21,0.29,4.78,0.00,17.06,21.58,25.45,14.94,50.56,1017.59,2046.98,2062.30,2086.44,2368.45,600.00,608.73,22.51,0000 0000 0000 0000 000000
2016-12-02 05:39:23,0.31,4.80,0.00,17.05,21.57,25.46,14.96,50.59,1017.59,2046.98,2059.13,2083.95,2365.81,600.23,609.18,22.56,0000 0000 0000 0000 000000
2016-12-02 05:44:24,0.28,4.81,0.00,17.04,21.57,25.48,14.96,50.68,1017.59,2046.95,2056.01,2081.48,2362.97,599.44,608.34,22.61,0000 0000 0000 0000 000000
2016-12-02 05:49:25,0.32,4.83,0.00,17.06,21.57,25.46,14.92,50.65,1017.59,2046.94,2052.93,2079.02,2360.19,600.04,608.93,22.66,0000 0000 0000 0000 000000
2016-12-02 05:54:27,0.29,4.84,0.00,17.04,21.57,25.44,14.90,50.52,1017.59,2046.91,2049.85,2076.57,2357.43,599.77,608.62,22.71,0000 0000 0000 0000 000000
2016-12-02 05:59:29,0.30,4.86,0.00,17.02,21.55,25.43,14.94,50.68,1017.59,2046.91,2046.73,2074.11,2354.67,599.93,608.88,22.76,0000 0000 0000 0000 000000
2016-12-02 06:04:30,0.31,4.87,0.00,17.03,21.54,25.39,14.94,50.71,1017.59,2046.93,2043.76,2071.61,2351.84,599.94,608.84,22.81,0000 0000 0000 0000 000000
2016-12-02 06:09:31,0.30,4.89,0.00,17.03,21.54,25.37,14.89,50.65,1017.59,2046.94,2040.75,2069.17,2349.04,599.68,608.62,22.86,0000 0000 0000 0000 000000
2016-12-02 06:14:32,0.31,4.91,0.00,17.03,21.53,25.35,14.94,50.57,1017.59,2046.95,2037.64,2066.71,2346.22,599.99,608.79,22.91,0000 0000 0000 0000 000000
2016-12-02 06:19:34,0.31,4.92,0.00,17.03,21.52,25.36,14.93,50.57,1017.59,2046.97,2034.46,2064.27,2343.44,599.67,608.50,22.96,0000 0000 0000 0000 000000
2016-12-02 06:24:35,0.31,4.94,0.00,17.04,21.52,25.36,14.91,50.67,1017.59,2046.98,2031.39,2061.83,2340.65,599.67,608.53,23.01,0000 0000 0000 0000 000000
2016-12-02 06:29:36,0.30,4.95,0.00,17.02,21.52,25.35,14.96,50.63,1017.59,2046.98,2028.36,2059.39,2337.87,600.07,608.97,23.06,0000 0000 0000 0000 000000
2016-12-02 06:34:38,0.30,4.97,0.00,17.01,21.51,25.36,14.98,50.63,1017.58,2046.98,2025.44,2057.02,2335.04,599.95,608.90,23.11,0000 0000 0000 0000 000000
2016-12-02 06:39:38,0.30,4.98,0.00,17.02,21.50,25.36,14.95,50.58,1017.59,2046.97,2022.36,2054.58,2332.30,599.89,608.80,23.16,0000 0000 0000 0000 000000
2016-12-02 06:44:40,0.31,5.00,0.00,17.02,21.49,25.38,14.87,50.69,1017.58,2046.98,2019.15,2052.15,2329.56,599.89,608.65,23.21,0000 0000 0000 0000 000000
2016-12-02 06:49:41,0.31,5.01,0.00,17.00,21.49,25.36,14.96,50.72,1017.53,2046.98,2016.00,2049.65,2326.72,599.90,608.80,23.26,0000 0000 0000 0000 000000
2016-12-02 06:54:42,0.31,5.03,0.00,16.99,21.49,25.38,15.01,50.77,1017.55,2046.98,2012.75,2047.20,2323.95,600.00,608.90,23.31,0000 0000 0000 0000 000000
2016-12-02 06:59:43,0.31,5.05,0.00,17.00,21.49,25.38,14.96,50.89,1017.56,2046.99,2009.62,2044.94,2321.10,599.95,608.85,23.36,0000 0000 0000 0000 000000
2016-12-02 07:04:44,0.32,5.06,0.00,16.99,21.49,25.37,14.99,50.92,1017.58,2046.99,2006.46,2042.41,2318.26,600.29,609.23,23.41,0000 0000 0000 0000 000000
2016-12-02 07:09:46,0.30,5.08,0.00,16.99,21.49,25.34,14.92,50.79,1017.59,2046.99,2003.47,2040.02,2315.48,600.12,609.07,23.46,0000 0000 0000 0000 000000
2016-12-02 07:14:47,0.30,5.09,0.00,17.01,21.49,25.35,14.92,50.77,1017.59,2046.99,2000.75,2037.67,2312.67,599.83,608.72,23.51,0000 0000 0000 0000 000000
2016-12-02 07:19:48,0.31,5.11,0.00,17.02,21.49,25.36,14.92,50.87,1017.59,2046.99,1997.68,2035.27,2309.94,599.91,608.81,23.56,0000 0000 0000 0000 000000
2016-12-02 07:24:49,0.30,5.12,0.00,16.97,21.49,25.38,14.82,50.90,1017.56,2046.99,1994.62,2032.92,2307.30,599.97,608.91,23.61,0000 0000 0000 0000 000000
2016-12-02 07:29:51,0.30,5.14,0.00,16.99,21.49,25.38,14.88,50.92,1017.39,2046.99,1991.73,2030.53,2304.51,599.65,608.39,23.66,0000 0000 0000 0000 000000
2016-12-02 07:34:52,0.31,5.15,0.00,16.98,21.49,25.35,14.89,50.99,1017.30,2046.99,1988.78,2028.12,2301.81,599.99,608.86,23.71,0000 0000 0000 0000 000000
2016-12-02 07:39:53,0.29,5.17,0.00,16.98,21.49,25.39,15.00,50.84,1017.31,2046.99,1985.97,2025.73,2299.05,600.23,609.01,23.76,0000 0000 0000 0000 000000
2016-12-02 07:44:55,0.29,5.18,0.00,16.95,21.49,25.36,14.97,50.74,1017.42,2046.98,1983.29,2023.44,2296.29,600.39,609.34,23.81,0000 0000 0000 0000 000000
2016-12-02 07:49:56,0.30,5.20,0.00,16.97,21.49,25.37,14.97,50.76,1017.51,2046.98,1980.30,2021.12,2293.57,600.24,609.17,23.86,0000 0000 0000 0000 000000
2016-12-02 07:54:57,0.34,5.22,0.00,16.96,21.49,25.35,14.94,50.64,1017.58,2046.98,1976.88,2018.54,2290.82,599.82,608.88,23.91,0000 0000 0000 0000 000000
2016-12-02 07:59:59,0.31,5.23,0.00,16.97,21.47,25.35,14.94,50.74,1017.57,2046.97,1973.84,2016.21,2288.15,599.95,608.87,23.96,0000 0000 0000 0000 000000
2016-12-02 08:05:00,0.31,5.25,0.00,16.93,21.47,25.32,14.99,50.88,1017.53,2046.99,1970.71,2013.78,2285.47,600.19,609.24,24.01,0000 0000 0000 0000 000000
2016-12-02 08:10:02,0.30,5.27,0.00,16.96,21.47,25.30,14.99,50.89,1017.54,2046.99,1967.78,2011.42,2282.77,599.83,608.89,24.06,0000 0000 0000 0000 000000
2016-12-02 08:15:03,0.31,5.28,0.00,16.94,21.47,25.34,14.97,50.86,1017.53,2046.99,1964.82,2009.04,2280.06,600.12,609.15,24.11,0000 0000 0000 0000 000000
2016-12-02 08:20:04,0.31,5.30,0.00,16.93,21.47,25.34,14.98,50.92,1017.52,2046.99,1961.91,2006.67,2277.34,599.87,609.03,24.16,0000 0000 0000 0000 000000
2016-12-02 08:25:05,0.31,5.31,0.00,16.94,21.47,25.30,14.97,50.84,1017.52,2046.99,1958.94,2004.27,2274.61,600.18,609.28,24.21,0000 0000 0000 0000 000000
2016-12-02 08:30:07,0.30,5.33,0.00,16.93,21.47,25.31,14.97,50.75,1017.56,2046.99,1956.07,2002.00,2271.97,600.23,609.18,24.26,0000 0000 0000 0000 000000
2016-12-02 08:35:08,0.30,5.34,0.00,16.92,21.47,25.30,14.98,50.87,1017.35,2046.99,1953.26,1999.71,2269.26,599.90,608.88,24.31,0000 0000 0000 0000 000000
2016-12-02 08:40:09,0.31,5.36,0.00,16.92,21.46,25.27,14.95,50.83,1017.12,2046.99,1950.33,1997.40,2266.60,600.02,608.84,24.36,0000 0000 0000 0000 000000
2016-12-02 08:45:11,0.30,5.38,0.00,16.91,21.45,25.28,14.97,50.70,1017.11,2046.99,1947.44,1995.10,2263.95,600.31,609.23,24.41,0000 0000 0000 0000 000000
2016-12-02 08:50:12,0.30,5.39,0.00,16.92,21.45,25.33,14.93,50.74,1017.12,2046.99,1944.62,1992.82,2261.32,599.71,608.51,24.46,0000 0000 0000 0000 000000
2016-12-02 08:55:14,0.30,5.41,0.00,16.91,21.44,25.30,14.94,50.82,1017.13,2046.99,1941.67,1990.51,2258.69,600.10,608.98,24.51,0000 0000 0000 0000 000000
2016-12-02 09:00:15,0.32,5.42,0.00,16.91,21.44,25.29,14.95,50.92,1017.11,2046.99,1938.69,1988.19,2256.16,599.64,608.46,24.56,0000 0000 0000 0000 000000
2016-12-02 09:05:17,0.31,5.44,0.00,16.93,21.44,25.28,14.90,50.83,1017.15,2046.99,1935.71,1985.88,2253.56,599.96,608.78,24.61,0000 0000 0000 0000 000000
2016-12-02 09:10:18,0.30,5.45,0.00,16.94,21.44,25.30,14.97,50.92,1017.14,2046.99,1932.79,1983.65,2250.89,600.00,608.75,24.66,0000 0000 0000 0000 000000
2016-12-02 09:15:19,0.31,5.47,0.00,16.93,21.44,25.29,14.94,50.92,1017.20,2046.99,1929.87,1981.40,2248.23,599.94,608.74,24.71,0000 0000 0000 0000 000000
2016-12-02 09:20:20,0.31,5.48,0.00,16.93,21.44,25.33,14.99,51.10,1017.11,2046.99,1927.05,1979.10,2245.58,600.02,608.82,24.76,0000 0000 0000 0000 000000
2016-12-02 09:25:21,0.29,5.50,0.00,16.91,21.44,25.31,14.94,50.96,1017.11,2046.99,1924.47,1976.88,2242.91,599.77,608.54,24.81,0000 0000 0000 0000 000000
2016-12-02 09:30:23,0.31,5.51,0.00,16.92,21.45,25.35,15.02,51.13,1017.11,2046.99,1921.53,1974.53,2240.24,600.34,609.07,24.86,0000 0000 0000 0000 000000
2016-12-02 09:35:24,0.29,5.53,0.00,16.92,21.45,25.29,14.93,50.83,1017.11,2046.99,1918.90,1972.28,2237.79,599.97,608.76,24.91,0000 0000 0000 0000 000000
2016-12-02 09:40:25,0.30,5.54,0.00,16.94,21.46,25.33,14.96,50.98,1017.11,2046.99,1916.27,1970.09,2235.19,600.16,609.04,24.96,0000 0000 0000 0000 000000
2016-12-02 09:45:26,0.29,5.56,0.00,16.93,21.46,25.30,14.88,50.96,1017.11,2046.99,1913.51,1967.89,2232.58,599.39,608.20,25.01,0000 0000 0000 0000 000000
2016-12-02 09:50:27,0.31,5.57,0.00,16.94,21.45,25.33,14.95,51.00,1017.11,2046.98,1910.68,1965.64,2230.03,600.01,608.79,25.06,0000 0000 0000 0000 000000
2016-12-02 09:55:29,0.29,5.59,0.00,16.91,21.45,25.32,14.87,50.89,1017.11,2046.97,1907.87,1963.43,2227.56,599.97,608.70,25.11,0000 0000 0000 0000 000000
2016-12-02 10:00:30,0.31,5.61,0.00,16.91,21.44,25.28,14.90,50.89,1017.11,2046.97,1905.04,1961.24,2225.09,599.77,608.75,25.16,0000 0000 0000 0000 000000
2016-12-02 10:05:31,0.31,5.62,0.00,16.91,21.44,25.29,14.95,50.88,1017.11,2046.98,1902.31,1959.02,2222.46,599.98,608.83,25.21,0000 0000 0000 0000 000000
2016-12-02 10:10:33,0.30,5.64,0.00,16.90,21.44,25.32,14.94,51.03,1017.11,2046.98,1899.48,1956.76,2219.92,599.86,608.71,25.26,0000 0000 0000 0000 000000
2016-12-02 10:15:34,0.30,5.65,0.00,16.91,21.44,25.31,14.94,50.90,1017.11,2046.98,1896.68,1954.57,2217.41,600.28,609.07,25.31,0000 0000 0000 0000 000000
2016-12-02 10:20:36,0.31,5.67,0.00,16.91,21.44,25.25,15.03,50.92,1017.11,2046.99,1893.86,1952.32,2214.85,599.96,608.68,25.36,0000 0000 0000 0000 000000
2016-12-02 10:25:37,0.32,5.68,0.00,16.92,21.42,25.27,14.95,50.97,1017.11,2046.99,1891.10,1950.02,2212.31,599.97,608.79,25.41,0000 0000 0000 0000 000000
2016-12-02 10:30:38,0.30,5.70,0.00,16.91,21.42,25.29,14.91,51.06,1017.11,2046.98,1888.32,1947.81,2209.79,599.61,608.52,25.46,0000 0000 0000 0000 000000
2016-12-02 10:35:39,0.31,5.71,0.00,16.92,21.42,25.28,14.98,51.04,1017.11,2046.98,1885.39,1945.56,2207.21,600.04,608.93,25.51,0000 0000 0000 0000 000000
2016-12-02 10:40:41,0.32,5.73,0.00,16.93,21.42,25.25,14.98,51.08,1017.12,2046.98,1882.42,1943.23,2204.59,600.09,608.77,25.56,0000 0000 0000 0000 000000
2016-12-02 10:45:42,0.32,5.75,0.00,16.91,21.42,25.30,14.92,51.09,1017.13,2046.99,1879.50,1940.95,2202.02,599.97,608.94,25.61,0000 0000 0000 0000 000000
2016-12-02 10:50:43,0.31,5.76,0.00,16.90,21.42,25.28,14.93,51.10,1017.11,2046.99,1876.64,1938.69,2199.40,600.22,609.10,25.66,0000 0000 0000 0000 000000
2016-12-02 10:55:45,0.30,5.78,0.00,16.89,21.42,25.27,14.98,51.06,1017.11,2046.98,1874.10,1936.51,2196.80,600.33,609.29,25.71,0000 0000 0000 0000 000000
2016-12-02 11:00:46,0.30,5.79,0.00,16.91,21.42,25.26,14.97,50.97,1017.11,2046.99,1871.44,1934.35,2194.32,599.96,608.77,25.76,0000 0000 0000 0000 000000
2016-12-02 11:05:47,0.30,5.81,0.00,16.91,21.42,25.26,14.96,51.02,1017.11,2046.98,1868.82,1932.20,2191.80,600.08,609.03,25.81,0000 0000 0000 0000 000000
2016-12-02 11:10:49,0.31,5.83,0.00,16.89,21.42,25.28,14.92,51.08,1017.11,2046.99,1866.11,1930.04,2189.29,599.91,608.87,25.87,0000 0000 0000 0000 000000
2016-12-02 11:15:50,0.31,5.84,0.00,16.89,21.42,25.24,14.94,50.96,1017.11,2046.97,1863.35,1927.84,2186.76,599.91,608.69,25.92,0000 0000 0000 0000 000000
2016-12-02 11:20:52,0.30,5.86,0.00,16.91,21.42,25.30,14.95,51.02,1017.11,2046.98,1860.68,1925.67,2184.31,600.42,609.25,25.97,0000 0000 0000 0000 000000
2016-12-02 11:25:53,0.31,5.87,0.00,16.91,21.41,25.30,14.95,51.11,1017.11,2046.98,1857.96,1923.56,2181.87,599.79,608.70,26.02,0000 0000 0000 0000 000000
2016-12-02 11:30:54,0.30,5.89,0.00,16.90,21.41,25.27,14.97,51.07,1017.11,2046.99,1855.31,1921.44,2179.41,600.19,609.06,26.07,0000 0000 0000 0000 000000
2016-12-02 11:35:55,0.31,5.90,0.00,16.90,21.40,25.25,14.92,51.03,1017.11,2046.98,1852.64,1919.32,2176.94,600.08,608.90,26.12,0000 0000 0000 0000 000000
2016-12-02 11:40:57,0.30,5.92,0.00,16.89,21.40,25.28,15.00,51.03,1017.10,2046.99,1849.83,1917.16,2174.52,600.06,608.91,26.17,0000 0000 0000 0000 000000
2016-12-02 11:45:58,0.32,5.93,0.00,16.89,21.39,25.27,14.98,50.99,1017.07,2046.99,1847.06,1914.95,2172.11,599.71,608.57,26.22,0000 0000 0000 0000 000000
2016-12-02 11:50:59,0.32,5.95,0.00,16.88,21.40,25.27,14.82,51.17,1017.06,2046.99,1844.23,1912.76,2169.57,599.72,608.61,26.27,0000 0000 0000 0000 000000
2016-12-02 11:56:01,0.32,5.97,0.00,16.88,21.40,25.28,14.92,51.21,1016.99,2046.99,1841.43,1910.48,2167.03,600.05,608.85,26.32,0000 0000 0000 0000 000000
2016-12-02 12:01:02,0.30,5.98,0.00,16.89,21.40,25.29,15.01,51.23,1016.98,2046.99,1838.84,1908.27,2164.43,599.82,608.65,26.37,0000 0000 0000 0000 000000
2016-12-02 12:06:03,0.32,6.00,0.00,16.87,21.40,25.29,14.91,51.26,1016.74,2046.99,1836.07,1906.09,2161.92,599.88,608.55,26.42,0000 0000 0000 0000 000000
2016-12-02 12:11:04,0.33,6.02,0.00,16.89,21.40,25.29,14.94,51.25,1016.81,2046.99,1833.19,1903.86,2159.41,599.79,608.49,26.47,0000 0000 0000 0000 000000
2016-12-02 12:16:05,0.31,6.03,0.00,16.88,21.41,25.30,15.03,51.38,1016.78,2046.99,1830.43,1901.64,2156.92,599.99,608.76,26.52,0000 0000 0000 0000 000000
2016-12-02 12:21:07,0.31,6.05,0.00,16.89,21.42,25.29,15.01,51.32,1016.80,2046.99,1827.77,1899.49,2154.39,599.98,608.75,26.57,0000 0000 0000 0000 000000
2016-12-02 12:26:08,0.32,6.06,0.00,16.90,21.42,25.29,14.98,51.30,1016.78,2046.99,1825.12,1897.26,2151.77,600.09,608.70,26.62,0000 0000 0000 0000 000000
2016-12-02 12:31:09,0.36,6.08,0.00,16.88,21.42,25.30,14.99,51.29,1016.69,2046.99,1822.07,1894.88,2148.95,600.25,608.93,26.67,0000 0000 0000 0000 000000
2016-12-02 12:36:10,0.39,6.10,0.00,16.89,21.42,25.29,14.95,51.33,1016.70,2046.99,1818.69,1892.24,2146.07,600.03,608.80,26.72,0000 0000 0000 0000 000000
2016-12-02 12:41:12,0.36,6.12,0.00,16.91,21.42,25.30,14.96,51.27,1016.68,2046.98,1815.47,1889.75,2143.27,600.10,608.70,26.77,0000 0000 0000 0000 000000
2016-12-02 12:46:13,0.38,6.14,0.00,16.90,21.42,25.27,14.95,51.22,1016.65,2046.99,1812.42,1887.20,2140.16,599.60,608.30,26.82,0000 0000 0000 0000 000000
2016-12-02 12:51:14,0.37,6.16,0.00,16.89,21.42,25.29,15.01,51.27,1016.65,2046.98,1809.24,1884.55,2137.08,599.74,608.31,26.87,0000 0000 0000 0000 000000
2016-12-02 12:56:16,0.36,6.18,0.00,16.89,21.42,25.29,14.96,51.13,1016.63,2046.97,1806.17,1882.13,2134.30,599.79,608.48,26.92,0000 0000 0000 0000 000000